TOPSWRTT 000
TTAA00 KICT 011112

Wichita AWIPS Roundup
National Weather Service Wichita KS
600 AM CDT SAT NOV 01 2014

....Central Kansas....
  
CITY           SKY/WX    TMP DP  RH WIND       PRES   REMARKS
RUSSELL        CLEAR     31  18  58 SE14      30.30F WCI  21          
SALINA         CLEAR     31  19  61 SE13      30.39S WCI  21          
GREAT BEND     PTCLDY    30  16  55 S15       30.33S WCI  19          
ELLSWORTH      CLEAR     30  21  69 SE10      30.34S WCI  21          
MCPHERSON      CLEAR     30  19  64 SE9       30.38S WCI  22          
HAYS           CLEAR     30  14  51 SE14      30.29S WCI  20          

....South Central Kansas....
  
CITY           SKY/WX    TMP DP  RH WIND       PRES   REMARKS
HUTCHINSON     PTCLDY    30  19  63 SE7       30.38F WCI  23          
NEWTON         PTCLDY    27  16  63 SE9       30.40S WCI  17          
KINGMAN        CLEAR     30  19  64 SE6       30.37S WCI  24          
WICHITA (ICT)  CLEAR     32  18  56 SE9       30.40S WCI  24          
JABARA ARPT    CLEAR     28  19  69 SE7       30.40S WCI  21          
MCCONNELL AFB  PTCLDY    32  16  51 SE9       30.40S WCI  24          
EL DORADO      FAIR      30  21  69 SE8       30.40S WCI  23          
HARPER           N/A     30  19  64 CALM      30.39F                  
WELLINGTON     CLEAR     30  23  74 E7        30.41F WCI  23          
WINFIELD       PTCLDY    29  20  69 E8        30.42F WCI  21          
 
....Southeast Kansas....
  
CITY           SKY/WX    TMP DP  RH WIND       PRES   REMARKS
EUREKA         CLEAR     27  21  80 E7        30.43F WCI  19          
CHANUTE          N/A    N/A N/A N/A MISG      30.46R                  
PARSONS        CLEAR     24  20  84 CALM      30.47R                  
COFFEYVILLE    CLEAR     25  22  88 NE5       30.47R WCI  19          
INDEPENDENCE   CLEAR     27  21  80 CALM      30.46S HAZE             
FORT SCOTT     PTCLDY    27  25  93 CALM      30.45S                  
PITTSBURG      PTCLDY    31  26  81 E3        30.44S                  

....Western Kansas....
  
CITY           SKY/WX    TMP DP  RH WIND       PRES   REMARKS
GOODLAND       PTCLDY    31  22  69 S18G29    30.08F WCI  19          
HILL CITY      CLEAR     33  16  49 SE13      30.25F WCI  24          
LIBERAL        CLEAR     34  21  60 SE10      30.25S WCI  26          
GARDEN CITY    PTCLDY    33  20  58 S16G26    30.20F WCI  23          
DODGE CITY     PTCLDY    32  16  51 S20       30.27F WCI  20          
PRATT          CLEAR     32  19  59 S9        30.35S WCI  24          
MEDICINE LODGE   N/A     29  18  63 SE6       30.37S WCI  23          

....Northeast Kansas....
  
CITY           SKY/WX    TMP DP  RH WIND       PRES   REMARKS
CONCORDIA      PTCLDY    30  19  63 SE10      30.37F WCI  21          
TOPEKA         PTCLDY    26  22  84 CALM      30.46S                  
MANHATTAN      CLEAR     27  20  75 CALM      30.43S                  
LAWRENCE       PTCLDY    21  19  92 SE3       30.47S                  
OLATHE         PTCLDY    29  20  69 E6        30.44S WCI  23          
EMPORIA        PTCLDY    25  20  81 SE6       30.43F WCI  18          

....Oklahoma....
  
CITY           SKY/WX    TMP DP  RH WIND       PRES   REMARKS
GAGE           CLEAR     36  20  52 S12       30.32S WCI  28          
PONCA CITY     CLEAR     34  20  56 SE10      30.41F WCI  26          
BARTLESVILLE   PTCLDY    22  20  92 CALM      30.48R                  
TULSA          PTCLDY    28  24  85 NW6       30.46R WCI  22          
OKLAHOMA CITY  PTCLDY    36  20  52 E9        30.40S WCI  29          

Note: "fair" indicates few or no clouds below 12,000 feet with no
significant weather and/or obstructions to visibility.

USA.gov is the U.S. government's official web portal to all federal, state and local government web resources and services.